ONEWEB-0120

Last updated on Mon Jan 18 2021 00:02:03 GMT+0000 (Coordinated Universal Time)

1 47266U 20100J 21017.58334491 -.01468553 00000-0 -81334-1 0 9990 2 47266 87.4387 29.0410 0009526 160.6683 229.5603 15.16942790 1789

Satellite not in orbit